Location: ???????
(55.4362°N, 38.1183°E)
Time: 18:14:29
(UTC+00:00)

CZ-4 R/B - Pass Details

Date: 17 June 2021
Orbit: 682 x 752 km, 98.5° (Epoch: 29 July)

Event Time Altitude Azimuth Distance (km) Brightness Sun altitude
Rises 23:06:23 0° 14° (NNE) 3,060 9.3 -8.4°
Reaches altitude 10° 23:08:38 10° 12° (NNE) 2,140 7.9 -8.3°
Maximum altitude 23:13:15 66° 291° (WNW) 754 4.0 -8.1°
Drops below altitude 10° 23:17:53 10° 210° (SSW) 2,140 5.6 -7.8°
Enters shadow 23:17:57 10° 210° (SSW) 2,165 5.7 -7.8°
